Temperature
30 31 32 32 31 32 31 31 31 32 32 31 31 31 30 29 28 28 26 26 25 24 23 23 22 21 21 21 20 20 19 19 19 19 18 18 18 17 17 17 17 17 17 17
29 30 31 31 32 32 32 32 32 32 32 33 32 30 30 29 28 27 26 25 24 23 23 22 22 21 21 20 20 20 19 19 19 18 18 17 17 17 17 17 17 17 17 16
28 30 30 30 31 32 32 32 32 31 31 31 31 30 29 28 28 27 26 25 24 23 22 22 22 21 21 20 20 19 19 19 18 18 18 17 17 17 17 16 16 16 16 16
27 28 27 30 32 32 32 32 32 32 32 31 30 30 29 28 27 27 26 25 24 23 22 22 21 21 20 20 19 19 19 18 18 18 17 17 17 17 16 16 16 16 16 15
27 27 28 30 31 32 31 31 32 32 31 30 30 29 28 27 27 26 25 24 23 23 22 21 21 20 20 19 19 19 18 18 18 17 17 17 16 16 16 16 15 15 15 15
26 26 27 29 31 31 31 29 31 31 30 29 29 28 27 26 26 25 24 24 23 22 22 21 20 20 19 19 19 18 18 18 17 17 17 16 16 16 15 15 15 14 14 14
25 26 27 29 30 30 28 28 30 30 29 29 28 28 26 26 25 24 24 23 22 22 21 21 20 19 19 19 18 18 18 17 17 17 16 16 16 16 15 15 14 14 14 14
25 26 26 29 29 28 27 28 28 28 28 27 27 26 25 25 24 24 23 22 22 21 20 20 20 19 19 18 18 18 18 17 17 16 16 16 15 15 15 14 14 14 14 13
26 26 26 27 26 26 26 27 27 27 27 26 26 25 24 24 23 23 22 22 21 20 20 19 19 19 19 18 18 18 17 17 16 16 15 15 15 15 14 14 14 14 13 13
25 25 26 26 25 25 25 26 26 26 25 25 25 24 23 23 22 22 21 21 20 20 19 19 19 18 18 18 18 17 17 16 16 15 15 15 15 15 14 14 14 13 13 13
24 25 25 25 24 24 24 24 25 25 24 24 24 23 23 22 21 21 21 20 20 19 19 19 19 18 18 18 17 17 16 16 16 15 15 15 15 14 14 14 14 14 13 13
23 24 24 24 23 24 24 24 24 24 23 23 23 22 22 21 21 20 20 19 19 19 18 18 18 18 17 17 17 17 16 16 15 15 15 15 14 14 14 14 14 13 13 13
22 22 23 23 23 23 23 23 23 22 22 22 22 21 21 21 20 20 19 19 19 18 18 18 17 17 17 17 17 16 16 15 15 15 14 14 14 14 14 13 13 13 13 13
21 21 22 22 22 22 22 22 22 22 21 21 21 21 20 20 20 19 19 18 18 18 18 17 17 17 17 16 16 16 16 15 15 15 14 14 14 14 14 13 13 13 13 13
21 21 21 21 22 21 21 21 21 21 21 20 20 20 20 19 19 18 18 18 18 17 17 17 17 16 16 16 16 15 15 15 15 15 15 14 14 14 13 13 13 13 13 12
20 20 21 21 21 21 21 21 21 21 20 20 19 19 19 19 18 18 18 17 17 17 17 16 16 16 16 15 15 15 15 15 15 15 14 14 14 14 14 13 13 13 13 13
19 20 20 20 20 20 20 20 20 20 20 19 19 18 18 18 17 17 17 17 16 16 16 16 16 16 15 15 15 15 15 15 15 14 14 14 14 14 14 14 13 13 13 13
19 19 19 20 20 19 19 19 19 19 19 19 18 18 18 17 17 17 16 16 16 16 15 15 15 15 15 15 15 15 15 15 14 14 14 14 14 14 14 14 13 13 13 12
18 19 19 19 19 19 19 19 19 19 18 18 17 17 17 17 16 16 16 16 15 15 15 15 15 15 15 15 14 15 15 14 14 14 14 14 14 14 14 13 13 13 13 12
18 18 18 18 18 18 18 18 18 18 17 17 17 16 16 16 16 15 15 15 15 15 15 15 15 14 14 14 14 14 14 14 14 14 14 14 14 14 13 13 13 13 13 12
17 17 17 17 17 17 17 17 17 17 17 16 16 16 16 15 15 15 15 15 15 15 15 14 14 14 14 14 14 14 14 14 14 14 14 14 13 13 13 13 13 12 12 12
16 16 16 17 16 16 16 16 16 16 16 16 16 16 15 15 15 15 15 15 15 14 14 14 14 14 14 14 14 14 14 14 14 14 14 13 13 13 13 13 12 12 12 12
15 15 16 16 16 15 15 15 15 15 15 15 15 15 15 15 14 14 14 14 14 14 14 14 14 14 14 14 14 13 13 13 13 13 13 13 13 13 12 12 12 12 11 11
14 14 15 15 15 15 15 15 15 15 15 15 15 14 14 14 14 14 14 14 14 14 14 14 14 14 13 13 13 13 13 13 13 13 13 13 12 12 12 12 12 11 11 11
14 14 14 14 14 14 14 14 14 14 14 14 14 14 14 14 14 14 14 14 14 13 13 13 13 13 13 13 13 13 13 12 12 12 12 12 12 12 12 11 11 11 11 11
13 13 13 14 14 14 14 14 14 14 14 14 14 14 13 13 13 13 13 13 13 13 13 13 13 13 13 12 12 12 12 12 12 12 12 12 12 11 11 11 11 11 10 10
13 13 13 13 13 14 14 14 14 14 13 13 13 13 13 13 13 13 13 13 13 13 13 12 12 12 12 12 12 12 12 12 12 11 11 11 11 11 11 11 10 10 10 10
Wind_Speed
16 13 15 17 18 19 18 16 14 11 11 10 8 9 9 10 9 8 8 8 10 10 9 9 8 7 7 7 7 6 6 6 5 5 4 3 3 3 3 4 4 3 3 3
16 16 14 15 17 19 19 17 16 14 8 7 8 9 9 10 10 9 9 9 10 10 10 9 8 8 7 7 7 7 7 6 5 5 5 4 4 5 4 5 4 4 4 5
15 16 15 17 16 16 16 16 15 14 7 6 8 8 9 9 9 9 8 8 9 10 10 9 8 8 8 8 7 7 7 6 5 5 5 4 5 5 5 5 5 5 5 6
12 13 17 12 13 14 14 13 12 9 6 6 6 7 7 9 9 9 9 8 9 9 9 9 9 9 9 8 8 7 6 5 5 6 6 5 5 5 5 5 5 5 5 5
12 14 14 12 11 13 13 12 10 8 5 5 5 6 6 6 8 8 8 8 8 8 10 10 9 9 9 8 8 7 7 6 6 6 6 6 5 5 5 5 6 5 5 5
11 13 13 12 11 9 9 10 9 7 6 7 7 6 5 6 7 8 9 8 8 8 10 10 9 9 9 9 8 7 7 6 6 6 6 6 5 5 5 5 6 6 6 5
15 12 9 5 7 10 12 7 5 6 6 7 5 3 6 8 7 7 8 8 8 8 8 8 9 9 8 8 8 8 8 7 7 6 6 6 5 4 4 5 6 6 6 5
14 13 8 4 6 6 2 4 3 3 5 5 5 8 8 8 7 8 8 9 9 8 8 8 8 8 8 8 8 9 9 8 7 7 6 6 5 4 4 5 6 6 6 5
6 4 2 5 6 5 4 5 4 4 5 7 7 7 7 7 7 8 8 8 7 8 8 8 8 8 9 8 9 9 9 8 8 7 6 5 5 4 4 4 5 5 5 5
5 5 3 4 6 5 4 4 4 4 4 5 6 7 7 6 6 6 7 7 7 7 8 8 8 8 8 9 10 10 9 8 7 7 7 5 4 4 3 2 3 4 4 5
5 5 5 4 4 4 3 3 3 3 2 4 5 7 7 6 6 6 6 6 6 6 7 8 8 8 9 10 10 10 9 8 8 7 6 6 5 4 3 4 2 3 3 4
4 3 4 5 3 3 3 3 3 3 3 4 4 5 6 6 6 6 6 5 6 6 7 8 9 9 9 9 9 9 8 7 7 7 6 6 7 6 10 7 9 10 8 6
2 2 2 4 3 3 4 3 3 3 2 3 5 5 6 6 5 5 6 6 6 6 7 8 8 9 9 8 8 8 7 7 6 7 7 7 7 7 6 5 8 9 8 9
3 3 3 2 3 4 4 3 3 4 3 4 5 6 5 5 5 5 5 5 6 7 7 7 8 8 9 9 8 8 7 7 6 6 7 7 7 7 7 7 6 4 4 5
1 2 3 2 2 3 2 3 3 4 4 4 4 5 5 5 5 5 5 5 6 7 7 7 7 7 8 9 8 8 7 6 6 6 6 6 7 7 7 7 6 6 5 4
2 2 3 3 3 3 3 3 3 4 4 4 4 4 4 4 4 5 5 6 6 6 6 6 6 7 7 8 8 6 5 6 5 5 6 6 6 6 6 6 7 7 7 7
3 4 3 3 3 2 2 2 1 1 2 4 4 4 4 5 5 5 5 5 5 5 5 5 5 6 6 7 7 6 6 6 6 6 6 6 5 5 5 5 5 6 6 7
4 4 3 3 2 2 1 2 2 2 2 3 4 4 5 5 4 4 5 5 5 5 5 6 5 6 6 6 5 5 6 6 6 5 5 5 4 4 4 4 5 6 6 7
4 4 3 2 2 2 2 1 1 2 3 3 4 4 3 4 5 4 4 4 4 4 4 5 7 6 6 5 5 5 6 7 6 5 4 5 5 4 4 4 4 5 5 6
3 2 3 3 3 3 2 2 1 2 3 4 4 4 4 4 4 4 4 3 3 3 4 5 5 5 5 5 4 5 6 7 6 6 5 5 5 4 4 4 4 4 5 5
3 2 3 3 2 2 2 1 1 2 3 3 4 4 4 4 5 4 4 3 3 4 5 5 4 3 4 4 5 4 5 5 5 5 5 4 4 4 4 4 4 3 3 3
2 2 2 3 2 2 1 1 2 3 3 3 3 4 5 5 5 4 3 3 4 5 5 4 3 3 3 4 5 4 4 4 4 4 4 4 4 4 3 3 3 3 3 3
1 1 2 1 2 2 1 2 2 3 3 3 4 4 4 3 3 3 3 3 4 5 4 3 4 5 3 4 4 4 4 4 4 4 4 4 4 4 3 3 3 3 3 3
0 1 1 0 1 2 2 2 2 2 2 3 4 4 3 3 2 2 3 5 6 6 4 5 6 5 3 3 4 4 4 4 4 3 3 3 3 3 2 2 3 3 3 3
1 1 1 2 2 2 3 3 3 3 2 2 3 3 2 2 3 3 4 6 8 7 5 6 6 4 4 4 4 4 4 3 3 3 3 3 3 3 2 2 2 2 2 2
2 2 1 1 1 2 2 2 3 3 3 2 2 2 2 2 3 4 5 6 7 6 6 5 5 4 3 3 4 4 4 4 4 3 3 3 2 2 2 2 2 1 1 2
2 2 1 2 2 2 2 2 2 3 3 3 3 2 3 3 4 5 5 5 6 5 5 5 4 4 4 4 4 4 4 3 3 2 2 3 3 2 1 1 1 1 1 1
Wind_Direction
256 253 224 213 218 224 229 234 239 238 218 190 171 152 151 148 146 142 134 133 129 129 129 128 131 133 133 133 132 134 133 132 133 130 120 112 109 109 107 99 93 75 64 55
246 252 244 228 220 220 226 229 238 248 242 176 162 147 151 150 151 147 146 148 139 136 135 140 144 143 138 135 136 135 136 137 135 134 126 117 113 109 101 93 83 73 68 62
238 238 245 234 225 224 225 227 233 239 214 167 152 157 154 153 158 156 153 147 145 144 144 145 146 141 140 139 137 136 135 135 135 135 131 126 122 109 100 94 90 82 75 71
239 233 236 237 227 230 231 232 232 234 186 176 172 162 156 161 157 155 156 153 150 149 146 147 146 143 142 143 142 141 139 135 130 127 123 118 114 108 105 103 97 88 79 74
236 231 231 229 227 224 225 230 230 222 190 173 164 164 162 165 150 145 151 147 148 149 147 145 146 145 144 144 144 143 141 136 130 124 125 123 119 116 112 110 103 98 91 81
235 237 230 223 216 223 224 228 219 207 181 172 186 200 183 145 132 139 140 142 145 146 141 142 144 145 147 148 145 143 138 133 128 125 127 123 119 116 115 114 113 108 94 84
235 236 237 230 201 204 219 212 196 195 179 179 194 192 131 127 132 134 134 139 140 137 137 142 144 148 151 149 147 140 132 126 124 123 122 121 119 118 126 127 119 112 107 95
230 232 225 201 203 206 152 80 108 139 161 157 134 126 125 126 130 136 140 142 141 139 140 142 147 152 151 149 141 134 132 129 127 127 129 126 125 127 138 137 131 125 117 108
217 216 48 62 83 82 77 90 97 128 139 142 141 139 133 130 134 139 140 142 144 145 145 150 153 156 153 142 138 138 135 133 132 130 120 123 128 129 132 143 139 137 138 131
182 173 147 98 101 93 90 104 97 94 117 145 147 146 140 137 134 137 142 144 145 150 156 153 153 153 146 142 143 142 141 140 137 133 131 127 126 127 124 127 141 145 142 134
181 157 150 142 124 120 113 106 106 103 127 121 140 148 142 134 133 139 142 145 147 149 152 151 149 146 145 145 147 146 146 146 144 140 132 117 99 69 86 67 84 120 119 125
189 157 172 146 131 138 138 134 123 119 126 134 132 137 142 136 133 140 143 145 147 151 153 148 146 144 144 148 151 152 153 156 155 151 147 144 132 101 59 75 79 83 87 100
122 126 131 138 166 159 137 123 112 104 118 122 123 128 129 131 137 143 147 150 150 154 149 145 146 146 148 151 153 156 157 160 161 160 160 161 153 145 129 89 71 71 83 100
53 97 114 142 139 116 121 128 122 117 106 104 113 119 124 130 139 146 151 152 151 147 142 143 147 151 154 156 159 164 167 166 171 171 171 168 165 164 159 154 145 125 96 114
151 167 181 169 133 132 159 160 153 132 105 100 112 126 134 139 143 146 145 147 137 139 143 147 149 151 155 162 168 175 176 174 176 169 170 168 167 169 166 164 159 151 146 139
308 263 204 179 171 181 192 184 179 156 146 139 121 117 127 134 145 150 149 146 142 146 146 149 151 155 162 169 173 174 168 166 172 176 175 175 176 177 172 168 165 163 163 158
243 238 219 197 197 206 205 181 176 161 139 132 127 124 121 123 118 123 129 133 133 138 143 147 154 159 167 172 175 174 170 168 180 188 183 175 172 173 171 172 166 159 156 154
241 249 245 226 212 221 235 214 178 134 107 110 113 117 123 128 129 123 123 122 126 137 147 154 158 162 167 172 175 169 168 172 180 182 173 164 165 174 172 166 161 156 152 156
240 229 219 223 219 221 240 243 214 150 131 137 134 141 143 134 135 135 132 139 145 149 147 144 156 170 168 163 170 174 175 174 176 173 169 156 173 178 164 156 153 156 159 161
243 234 209 215 221 224 232 233 215 150 144 146 146 147 146 141 144 152 152 151 156 143 137 142 159 167 168 164 187 184 177 176 174 169 172 175 173 168 165 165 170 173 172 170
245 236 210 204 203 220 236 206 163 159 149 151 157 160 156 158 162 161 160 161 137 129 142 150 166 169 166 170 196 185 175 172 167 163 166 169 167 164 165 163 167 169 171 166
272 259 232 211 193 194 211 174 174 175 164 168 172 163 158 155 158 158 160 170 155 144 159 161 163 149 156 179 182 173 168 162 161 158 159 160 161 161 161 160 160 161 159 159
290 293 284 224 173 187 189 173 179 177 170 167 158 157 160 155 167 170 169 161 153 150 155 143 134 127 156 190 177 164 160 157 157 163 168 165 162 157 156 163 165 167 164 170
271 300 299 296 194 196 179 165 172 169 150 148 152 151 154 163 170 169 149 133 129 139 142 125 130 139 175 183 168 155 154 156 161 166 161 152 152 156 163 170 174 173 175 182
255 251 226 203 207 204 181 166 155 151 148 139 143 145 160 162 163 152 139 138 142 143 138 140 155 176 192 181 165 150 146 151 152 149 152 157 165 165 162 160 163 165 162 166
240 235 229 221 204 204 208 184 170 158 148 134 125 129 130 137 139 137 141 152 152 154 153 154 162 179 176 155 145 140 140 144 148 155 152 148 150 152 149 161 162 139 137 138
235 224 219 225 224 219 204 186 164 148 142 140 139 143 139 142 143 142 140 147 158 162 160 161 153 147 148 145 141 140 142 142 138 142 148 146 144 142 138 143 125 106 92 104
Height
1475 1469 1468 1474 1478 1479 1483 1485 1493 1490 1489 1487 1487 1491 1496 1501 1505 1509 1513 1516 1518 1521 1524 1527 1530 1532 1535 1537 1539 1540 1541 1541 1542 1543 1543 1543 1543 1543 1544 1544 1545 1545 1545 1545
1480 1472 1469 1472 1472 1475 1478 1479 1482 1483 1484 1480 1486 1491 1497 1501 1506 1510 1513 1516 1519 1521 1523 1526 1529 1531 1534 1536 1537 1539 1539 1540 1541 1542 1543 1543 1543 1543 1543 1543 1544 1544 1544 1544
1486 1476 1475 1481 1471 1472 1474 1473 1478 1484 1483 1483 1487 1492 1496 1500 1504 1509 1512 1515 1518 1520 1523 1525 1528 1530 1532 1534 1536 1537 1538 1539 1541 1542 1542 1543 1543 1543 1543 1543 1544 1544 1544 1544
1485 1485 1498 1475 1462 1465 1470 1471 1472 1475 1478 1482 1487 1491 1496 1499 1503 1508 1511 1514 1517 1520 1522 1525 1527 1529 1531 1534 1535 1536 1537 1539 1540 1541 1541 1542 1543 1543 1543 1543 1543 1544 1544 1544
1486 1488 1484 1471 1463 1464 1471 1474 1471 1475 1479 1483 1488 1491 1496 1500 1502 1506 1510 1513 1516 1519 1522 1524 1526 1528 1530 1532 1534 1535 1536 1538 1539 1540 1541 1541 1542 1542 1543 1543 1543 1544 1544 1544
1485 1491 1491 1473 1463 1464 1470 1480 1473 1476 1480 1484 1488 1493 1497 1499 1502 1506 1509 1513 1516 1518 1521 1523 1525 1527 1529 1530 1532 1534 1535 1537 1538 1539 1540 1541 1542 1542 1542 1543 1544 1544 1544 1544
1485 1486 1477 1463 1462 1466 1483 1482 1474 1476 1480 1484 1487 1491 1495 1498 1502 1505 1509 1512 1515 1517 1519 1521 1524 1526 1527 1529 1531 1533 1534 1536 1537 1538 1539 1540 1541 1542 1542 1543 1544 1544 1545 1545
1482 1485 1482 1464 1464 1470 1475 1474 1476 1478 1481 1485 1489 1492 1496 1499 1502 1505 1509 1512 1514 1516 1518 1520 1522 1524 1526 1528 1530 1532 1533 1535 1536 1538 1539 1540 1541 1541 1542 1543 1544 1544 1545 1545
1474 1476 1471 1468 1470 1474 1475 1476 1478 1480 1483 1486 1489 1493 1496 1500 1503 1506 1509 1511 1513 1515 1517 1519 1521 1523 1525 1527 1529 1530 1532 1534 1536 1537 1538 1540 1541 1541 1541 1543 1544 1545 1545 1546
1469 1470 1471 1472 1474 1476 1478 1479 1480 1482 1484 1487 1489 1493 1497 1500 1502 1505 1508 1510 1512 1514 1516 1518 1520 1522 1524 1525 1527 1529 1531 1533 1535 1536 1538 1539 1540 1541 1542 1543 1544 1545 1546 1546
1468 1470 1472 1475 1476 1478 1480 1481 1482 1483 1486 1488 1490 1493 1496 1499 1502 1504 1507 1509 1511 1513 1514 1516 1518 1520 1522 1524 1526 1528 1530 1532 1534 1536 1537 1538 1540 1541 1542 1543 1544 1545 1546 1547
1469 1470 1472 1475 1477 1479 1481 1482 1484 1484 1487 1488 1490 1493 1495 1498 1501 1503 1506 1508 1510 1511 1513 1515 1517 1519 1521 1523 1525 1527 1529 1531 1533 1535 1537 1538 1539 1540 1542 1543 1544 1545 1546 1547
1470 1472 1473 1475 1478 1480 1481 1483 1484 1486 1487 1489 1491 1493 1495 1498 1500 1503 1505 1506 1508 1510 1512 1514 1516 1518 1520 1522 1524 1526 1528 1530 1533 1534 1536 1537 1539 1540 1541 1543 1544 1545 1546 1547
1471 1473 1475 1476 1478 1480 1482 1484 1485 1487 1487 1489 1491 1493 1495 1498 1500 1502 1504 1505 1507 1509 1511 1513 1515 1517 1519 1521 1523 1525 1527 1529 1532 1533 1535 1537 1538 1539 1541 1542 1543 1544 1545 1546
1473 1475 1476 1477 1479 1480 1482 1484 1486 1487 1487 1489 1491 1493 1495 1497 1499 1501 1503 1505 1506 1508 1510 1512 1514 1516 1518 1520 1522 1524 1526 1528 1530 1533 1534 1536 1537 1539 1540 1541 1542 1543 1544 1545
1474 1475 1476 1477 1479 1481 1483 1484 1486 1487 1489 1490 1491 1493 1494 1496 1498 1500 1501 1503 1505 1507 1509 1511 1513 1515 1517 1519 1521 1523 1525 1527 1529 1531 1533 1535 1536 1538 1539 1540 1541 1542 1543 1544
1476 1476 1476 1477 1479 1482 1483 1485 1486 1487 1489 1490 1491 1493 1494 1496 1497 1499 1501 1503 1505 1507 1509 1511 1512 1515 1516 1518 1520 1522 1524 1525 1527 1529 1531 1533 1535 1536 1537 1539 1540 1541 1542 1543
1476 1477 1478 1479 1480 1482 1483 1485 1486 1488 1489 1490 1491 1493 1495 1496 1498 1500 1502 1503 1505 1507 1508 1510 1512 1513 1515 1517 1519 1521 1523 1524 1526 1528 1530 1531 1533 1535 1536 1538 1539 1540 1541 1542
1475 1476 1477 1478 1480 1482 1484 1485 1486 1487 1488 1490 1490 1493 1495 1496 1497 1500 1501 1503 1505 1506 1508 1509 1510 1512 1514 1516 1518 1520 1521 1523 1525 1526 1528 1530 1532 1534 1535 1536 1537 1538 1539 1540
1474 1475 1476 1478 1480 1481 1483 1484 1485 1486 1488 1489 1491 1492 1494 1496 1497 1499 1501 1503 1504 1505 1507 1508 1510 1511 1513 1515 1517 1519 1520 1522 1523 1525 1527 1529 1531 1532 1533 1534 1536 1536 1537 1538
1473 1474 1476 1478 1479 1481 1482 1484 1485 1486 1487 1489 1490 1491 1493 1495 1497 1498 1500 1501 1503 1504 1506 1507 1509 1510 1512 1514 1515 1517 1519 1521 1522 1524 1526 1527 1529 1530 1531 1533 1534 1535 1536 1537
1473 1474 1475 1477 1478 1480 1482 1483 1484 1486 1487 1488 1489 1491 1492 1494 1496 1497 1498 1500 1501 1503 1505 1506 1507 1509 1510 1512 1514 1516 1517 1519 1521 1523 1524 1526 1527 1528 1529 1531 1532 1533 1534 1534
1473 1474 1475 1476 1477 1479 1481 1482 1483 1484 1485 1487 1488 1490 1491 1492 1494 1495 1496 1498 1500 1501 1503 1504 1505 1507 1509 1511 1513 1514 1516 1517 1519 1521 1523 1524 1525 1526 1528 1529 1530 1530 1531 1532
1473 1474 1475 1475 1477 1478 1479 1480 1482 1483 1484 1486 1487 1489 1490 1491 1493 1494 1495 1496 1498 1499 1501 1502 1503 1505 1507 1509 1511 1513 1514 1516 1518 1520 1521 1523 1524 1525 1526 1527 1528 1529 1529 1530
1473 1473 1474 1475 1476 1477 1478 1479 1481 1482 1483 1485 1486 1487 1489 1490 1491 1492 1494 1495 1496 1498 1499 1500 1502 1504 1506 1509 1510 1512 1514 1515 1517 1518 1520 1521 1523 1524 1525 1525 1526 1527 1527 1528
1472 1472 1473 1474 1475 1476 1477 1478 1480 1481 1482 1483 1485 1486 1487 1488 1490 1491 1492 1493 1495 1497 1499 1500 1502 1504 1506 1508 1510 1512 1513 1515 1516 1518 1519 1520 1521 1522 1523 1524 1524 1525 1525 1525
1471 1471 1472 1473 1474 1475 1476 1477 1478 1480 1481 1482 1484 1485 1486 1487 1489 1490 1491 1493 1495 1497 1498 1500 1502 1504 1505 1507 1509 1511 1512 1514 1515 1516 1518 1519 1520 1521 1522 1522 1523 1523 1523 1523